This demonstration page uses our WeatherBlox Daily Observations layout. Learn more.

Hourly Observations for March 10, 2019

Temp ( °F °C ) Dew Point ( °F °C ) Humidity (%) Winds ( mph kmh ) Pressure ( in mb ) Visibility ( mi km ) Precip ( " mm )
12:15 am 00:15 Cloudy 36 2 36 2 100 100 S 8 13 30.21 1023 3 4.828032 0 0
12:35 am 00:35 Cloudy 36 2 36 2 100 100 S 12 19 30.18 1022 3 4.828032 0 0
12:55 am 00:55 Cloudy 36 2 36 2 100 100 S 12 19 30.18 1022 3 4.828032 0 0
1:15 am 01:15 Cloudy 36 2 36 2 100 100 S 9 15 30.21 1023 2.5 4.02336 0 0
1:35 am 01:35 Cloudy 36 2 36 2 100 100 SSE 10 17 30.18 1022 3 4.828032 0 0
1:55 am 01:55 Cloudy 36 2 36 2 100 100 SSE 3 6 30.18 1022 3 4.828032 0 0
3:15 am 03:15 Cloudy 36 2 36 2 100 100 SSE 5 7 30.18 1022 3 4.828032 0 0
3:35 am 03:35 Cloudy 36 2 36 2 100 100 SSE 6 9 30.15 1021 4 6.437376 0 0
3:55 am 03:55 Cloudy 36 2 36 2 100 100 SSE 8 13 30.12 1020 5 8.04672 0 0
4:15 am 04:15 Cloudy 36 2 36 2 100 100 S 7 11 30.15 1021 5 8.04672 0 0
4:35 am 04:35 Cloudy 36 2 36 2 100 100 SW 3 6 30.15 1021 7 11.265408 0 0
4:55 am 04:55 Cloudy 36 2 36 2 100 100 SSE 5 7 30.12 1020 7 11.265408 0 0
5:15 am 05:15 Cloudy 36 2 36 2 100 100 SE 3 6 30.12 1020 7 11.265408 0 0
5:35 am 05:35 Cloudy 36 2 36 2 100 100 Calm 30.12 1020 3 4.828032 0 0
5:55 am 05:55 Cloudy 36 2 36 2 100 100 Calm 30.12 1020 2.5 4.02336 0 0
6:15 am 06:15 Cloudy 36 2 36 2 100 100 Calm 30.12 1020 2 3.218688 0 0
6:35 am 06:35 Cloudy 36 2 36 2 100 100 ESE 3 6 30.12 1020 1.75 2.816352 0 0
6:55 am 06:55 Cloudy 36 2 36 2 100 100 ESE 3 6 30.12 1020 2 3.218688 0 0
7:15 am 07:15 Cloudy 36 2 36 2 100 100 E 5 7 30.12 1020 1.75 2.816352 0 0
7:35 am 07:35 Cloudy 36 2 36 2 100 100 E 3 6 30.09 1019 2 3.218688 0 0
7:55 am 07:55 Cloudy 36 2 36 2 100 100 E 6 9 30.09 1019 1.25 2.01168 0 0
8:15 am 08:15 Cloudy 36 2 36 2 100 100 ESE 3 6 30.09 1019 1.25 2.01168 0 0
8:35 am 08:35 Cloudy 36 2 36 2 100 100 Calm 30.09 1019 1.5 2.414016 0 0
8:55 am 08:55 Cloudy 36 2 36 2 100 100 Calm 30.09 1019 1.75 2.816352 0 0
9:15 am 09:15 Cloudy 36 2 36 2 100 100 ESE 3 6 30.09 1019 2 3.218688 0 0
9:35 am 09:35 Cloudy 36 2 36 2 100 100 SE 5 7 30.06 1018 1.75 2.816352 0 0
9:55 am 09:55 Cloudy 37 3 37 3 100 100 S 7 11 30.06 1018 1.75 2.816352 0 0
10:15 am 10:15 Cloudy 37 3 37 3 100 100 S 7 11 30.06 1018 4 6.437376 0 0
10:35 am 10:35 Cloudy 37 3 37 3 100 100 S 7 11 30.03 1017 4 6.437376 0 0
10:55 am 10:55 Cloudy 39 4 39 4 100 100 S 8 13 30.03 1017 4 6.437376 0 0
11:15 am 11:15 Cloudy 39 4 39 4 100 100 SSW 7 11 30.03 1017 3 4.828032 0 0
11:35 am 11:35 Cloudy 41 5 41 5 100 100 S 9 15 30 1016 4 6.437376 0 0
11:55 am 11:55 Cloudy 41 5 41 5 100 100 S 10 17 30 1016 7 11.265408 0 0
12:15 pm 12:15 Cloudy 41 5 41 5 100 100 S 9 15 30 1016 10 16.09344 0 0
12:35 pm 12:35 Cloudy 43 6 43 6 100 100 S 9 15 29.97 1015 10 16.09344 0 0
12:55 pm 12:55 Cloudy 43 6 43 6 100 100 SSW 8 13 29.97 1015 10 16.09344 0 0
1:15 pm 13:15 Cloudy 43 6 43 6 100 100 S 9 15 29.97 1015 10 16.09344 0 0
1:35 pm 13:35 Cloudy 45 7 45 7 100 100 S 10 17 29.97 1015 10 16.09344 0 0
1:55 pm 13:55 Cloudy 45 7 45 7 100 100 S 10 17 29.94 1014 10 16.09344 0 0
2:15 pm 14:15 Cloudy 46 8 46 8 100 100 S 9 15 29.94 1014 10 16.09344 0 0
2:35 pm 14:35 Cloudy 46 8 46 8 100 100 S 7 11 29.94 1014 10 16.09344 0 0
2:55 pm 14:55 Cloudy 50 10 46 8 88 88 S 5 7 29.88 1012 10 16.09344 0 0
3:15 pm 15:15 Partly Cloudy 52 11 48 9 88 88 S 7 11 29.88 1012 10 16.09344 0 0
3:35 pm 15:35 Partly Cloudy 54 12 46 8 77 77 S 9 15 29.88 1012 10 16.09344 0 0
3:55 pm 15:55 Sunny 55 13 48 9 77 77 S 7 11 29.88 1012 10 16.09344 0 0
4:15 pm 16:15 Sunny 55 13 50 10 82 82 S 7 11 29.88 1012 10 16.09344 0 0
4:35 pm 16:35 Sunny 57 14 50 10 77 77 S 10 17 29.88 1012 10 16.09344 0 0
4:55 pm 16:55 Sunny 57 14 50 10 77 77 S 6 9 29.88 1012 10 16.09344 0 0
5:15 pm 17:15 Sunny 59 15 50 10 72 72 SSW 6 9 29.88 1012 10 16.09344 0 0
5:35 pm 17:35 Sunny 59 15 52 11 77 77 SSW 6 9 29.88 1012 10 16.09344 0 0
5:55 pm 17:55 Sunny 61 16 52 11 72 72 SSW 6 9 29.88 1012 10 16.09344 0 0
6:15 pm 18:15 Sunny 61 16 52 11 72 72 SW 8 13 29.88 1012 10 16.09344 0 0
6:35 pm 18:35 Sunny 61 16 52 11 72 72 SW 5 7 29.88 1012 10 16.09344 0 0
6:55 pm 18:55 Sunny 59 15 52 11 77 77 SW 5 7 29.88 1012 10 16.09344 0 0
7:15 pm 19:15 Clear 59 15 50 10 72 72 WSW 5 7 29.88 1012 10 16.09344 0 0
7:35 pm 19:35 Clear 55 13 50 10 82 82 NNW 3 6 29.91 1013 10 16.09344 0 0
7:55 pm 19:55 Clear 54 12 50 10 88 88 Calm 29.91 1013 10 16.09344 0 0
8:15 pm 20:15 Clear 52 11 50 10 94 94 Calm 29.91 1013 10 16.09344 0 0
8:35 pm 20:35 Clear 50 10 48 9 94 94 NNW 3 6 29.94 1014 10 16.09344 0 0
8:55 pm 20:55 Clear 52 11 50 10 94 94 NE 6 9 29.94 1014 10 16.09344 0 0
9:15 pm 21:15 Clear 50 10 50 10 100 100 NNE 3 6 29.97 1015 10 16.09344 0 0
9:35 pm 21:35 Clear 46 8 46 8 100 100 Calm 30 1016 10 16.09344 0 0
9:55 pm 21:55 Clear 46 8 46 8 100 100 Calm 30.03 1017 10 16.09344 0 0
10:15 pm 22:15 Clear 46 8 46 8 100 100 NW 3 6 30.03 1017 10 16.09344 0 0
10:35 pm 22:35 Clear 45 7 45 7 100 100 NW 6 9 30.03 1017 10 16.09344 0 0
10:55 pm 22:55 Clear 50 10 41 5 71 71 WNW 8 13 30.03 1017 10 16.09344 0 0
11:15 pm 23:15 Clear 46 8 43 6 87 87 NW 9 15 30.06 1018 10 16.09344 0 0
11:35 pm 23:35 Clear 54 12 37 3 54 54 WNW 12 19 30.03 1017 10 16.09344 0 0
11:55 pm 23:55 Clear 54 12 37 3 54 54 NW 15 24 30.03 1017 10 16.09344 0 0

Powered by AerisWeather